Dalzell, IL

3:10 AM CST on December 10, 2016 (GMT -0600)
Illinois Valley Regional-Duncan

Weather History for KVYS - August, 2012

Change the Weather History Date:

Sunday, August 5, 2012

  Actual Average Record
Temperature  
Mean Temperature 73 °F -  
Max Temperature 81 °F 83 °F 97 °F (1988)
Min Temperature 64 °F 61 °F 47 °F (1972)
Cooling Degree Days 8    
Growing Degree Days 23 (Base 50)    
Moisture  
Dew Point 62 °F    
Average Humidity 70    
Maximum Humidity 93    
Minimum Humidity 43    
Precipitation  
Precipitation 0.00 in - - ()
Sea Level Pressure  
Sea Level Pressure 30.07 in    
Wind  
Wind Speed 8 mph (WNW)    
Max Wind Speed 16 mph    
Max Gust Speed 18 mph    
Visibility 9 miles    
Events      
Averages and records for this station are not official NWS values.
T = Trace of Precipitation, MM = Missing Value Source: NWS Daily Summary

Daily Weather History Graph

Daily Weather History Graph

Search for Another Location

Airport or City:

Trip Planner

Search our weather history database for the weather conditions in past years. The results will help you decide how hot, cold, wet, or windy it might be!

Date:

Astronomy

Aug. 05, 2012 Rise Set
Actual Time 5:56 AM CDT 8:08 PM CDT
Civil Twilight 5:25 AM CDT 8:38 PM CDT
Nautical Twilight 4:47 AM CDT 9:16 PM CDT
Astronomical Twilight 4:06 AM CDT 9:57 PM CDT
Moon 9:43 PM CDT (8/5) 9:48 AM CDT (8/5)
Length of Visible Light 15h 13m
Length of Day
14h 12m
Waning Gibbous, 86% of the Moon is Illuminated
Aug 5
Waning Gibbous
Aug 9
Last Quarter
Aug 17
New
Aug 24
First Quarter
Aug 31
Full

Hourly Weather History & Observations

Time (CDT) Temp. Heat Index Dew Point Humidity Pressure Visibility Wind Dir Wind Speed Gust Speed Precip Events Conditions
12:15 AM 72.7 °F - 69.3 °F 89% 29.95 in 10.0 mi NW 5.8 mph - N/A   Scattered Clouds
12:35 AM 72.0 °F - 68.7 °F 89% 29.96 in 10.0 mi NW 8.1 mph - N/A   Scattered Clouds
12:55 AM 72.0 °F - 68.5 °F 89% 29.94 in 10.0 mi NW 9.2 mph - N/A   Mostly Cloudy
1:15 AM 71.6 °F - 68.2 °F 89% 29.94 in 10.0 mi NW 10.4 mph - N/A   Scattered Clouds
1:35 AM 71.6 °F - 68.2 °F 89% 29.93 in 10.0 mi NW 9.2 mph - N/A   Clear
1:55 AM 70.7 °F - 67.8 °F 91% 29.94 in 10.0 mi NW 9.2 mph - N/A   Clear
2:15 AM 70.7 °F - 67.5 °F 89% 29.95 in 10.0 mi NW 8.1 mph - N/A   Clear
2:35 AM 70.0 °F - 67.1 °F 91% 29.96 in 10.0 mi NW 6.9 mph - N/A   Clear
2:55 AM 69.8 °F - 67.1 °F 91% 29.96 in 7.0 mi WNW 5.8 mph - N/A   Clear
3:15 AM 69.4 °F - 67.1 °F 92% 29.97 in 7.0 mi WNW 5.8 mph - N/A   Clear
3:35 AM 68.9 °F - 66.2 °F 91% 29.97 in 7.0 mi West 6.9 mph - N/A   Clear
3:55 AM 68.4 °F - 66.2 °F 93% 29.98 in 7.0 mi West 5.8 mph - N/A   Clear
4:15 AM 67.5 °F - 65.5 °F 93% 29.98 in 5.0 mi West 6.9 mph - N/A   Clear
4:35 AM 67.1 °F - 64.9 °F 93% 29.99 in 7.0 mi West 5.8 mph - N/A   Clear
4:55 AM 66.4 °F - 64.4 °F 93% 30.00 in 5.0 mi West 8.1 mph - N/A   Clear
5:15 AM 65.8 °F - 63.9 °F 93% 30.01 in 5.0 mi West 6.9 mph - N/A   Clear
5:35 AM 65.5 °F - 63.5 °F 93% 30.02 in 5.0 mi West 6.9 mph - N/A   Clear
5:55 AM 65.7 °F - 63.7 °F 93% 30.03 in 7.0 mi West 6.9 mph - N/A   Clear
6:15 AM 65.7 °F - 63.7 °F 93% 30.04 in 7.0 mi WSW 6.9 mph - N/A   Clear
6:35 AM 65.7 °F - 63.5 °F 93% 30.05 in 7.0 mi WSW 5.8 mph - N/A   Clear
6:55 AM 66.4 °F - 63.9 °F 92% 30.05 in 10.0 mi WSW 5.8 mph - N/A   Clear
7:15 AM 67.1 °F - 63.9 °F 89% 30.06 in 10.0 mi West 8.1 mph - N/A   Clear
7:35 AM 67.8 °F - 63.7 °F 87% 30.06 in 10.0 mi West 6.9 mph - N/A   Clear
7:55 AM 68.9 °F - 63.1 °F 82% 30.06 in 10.0 mi West 6.9 mph - N/A   Clear
8:15 AM 69.6 °F - 62.6 °F 78% 30.06 in 10.0 mi WNW 10.4 mph - N/A   Clear
8:35 AM 70.2 °F - 63.1 °F 78% 30.07 in 10.0 mi West 9.2 mph - N/A   Clear
8:55 AM 71.8 °F - 63.1 °F 74% 30.07 in 10.0 mi WNW 9.2 mph - N/A   Clear
9:15 AM 72.9 °F - 63.0 °F 71% 30.08 in 10.0 mi WNW 9.2 mph - N/A   Clear
9:35 AM 75.2 °F - 63.1 °F 66% 30.08 in 10.0 mi WNW 9.2 mph - N/A   Clear
9:55 AM 75.6 °F - 62.4 °F 64% 30.08 in 10.0 mi WNW 5.8 mph - N/A   Clear
10:15 AM 76.5 °F - 62.8 °F 62% 30.10 in 10.0 mi WNW 10.4 mph - N/A   Clear
10:35 AM 77.0 °F - 61.7 °F 59% 30.10 in 10.0 mi WNW 10.4 mph - N/A   Clear
10:55 AM 77.4 °F - 61.9 °F 59% 30.11 in 10.0 mi WNW 10.4 mph - N/A   Clear
11:15 AM 77.7 °F - 61.3 °F 57% 30.11 in 10.0 mi West 11.5 mph - N/A   Scattered Clouds
11:35 AM 79.0 °F - 61.5 °F 55% 30.11 in 10.0 mi WNW 11.5 mph - N/A   Scattered Clouds
11:55 AM 79.3 °F - 61.0 °F 53% 30.11 in 10.0 mi West 10.4 mph 17.3 mph N/A   Scattered Clouds
12:15 PM 79.0 °F - 60.6 °F 53% 30.11 in 10.0 mi WNW 11.5 mph - N/A   Clear
12:35 PM 80.2 °F 81.1 °F 60.8 °F 51% 30.11 in 10.0 mi WNW 10.4 mph 18.4 mph N/A   Clear
12:55 PM 80.2 °F 81.0 °F 60.1 °F 50% 30.11 in 10.0 mi WNW 10.4 mph - N/A   Clear
1:15 PM 80.4 °F 81.0 °F 59.0 °F 48% 30.11 in 10.0 mi WNW 11.5 mph 17.3 mph N/A   Scattered Clouds
1:35 PM 81.0 °F 81.8 °F 61.2 °F 51% 30.11 in 10.0 mi West 9.2 mph - N/A   Mostly Cloudy
1:55 PM 80.4 °F 81.1 °F 59.7 °F 49% 30.11 in 10.0 mi NW 16.1 mph - N/A   Mostly Cloudy
2:15 PM 81.5 °F 82.2 °F 61.3 °F 50% 30.11 in 10.0 mi NW 13.8 mph - N/A   Mostly Cloudy
2:35 PM 81.1 °F 81.5 °F 59.2 °F 47% 30.11 in 10.0 mi NW 9.2 mph - N/A   Mostly Cloudy
2:55 PM 80.4 °F 80.6 °F 56.8 °F 44% 30.11 in 10.0 mi NW 11.5 mph 18.4 mph N/A   Mostly Cloudy
3:35 PM 81.0 °F 80.9 °F 56.3 °F 43% 30.11 in 10.0 mi NW 11.5 mph - N/A   Clear
3:55 PM 81.0 °F 81.0 °F 57.0 °F 44% 30.11 in 10.0 mi North 8.1 mph - N/A   Clear
4:15 PM 80.4 °F 80.6 °F 56.8 °F 44% 30.11 in 10.0 mi WNW 6.9 mph 16.1 mph N/A   Scattered Clouds
4:35 PM 80.4 °F 80.7 °F 57.2 °F 45% 30.10 in 10.0 mi NW 10.4 mph 13.8 mph N/A   Clear
4:55 PM 80.2 °F 80.5 °F 57.2 °F 45% 30.10 in 10.0 mi WNW 9.2 mph - N/A   Clear
5:15 PM 80.4 °F 80.8 °F 57.7 °F 46% 30.10 in 10.0 mi NW 10.4 mph - N/A   Clear
5:35 PM 80.6 °F 80.8 °F 57.4 °F 45% 30.10 in 10.0 mi NNW 10.4 mph - N/A   Clear
5:55 PM 80.2 °F 80.5 °F 57.0 °F 45% 30.10 in 10.0 mi NNW 9.2 mph - N/A   Clear
6:15 PM 80.2 °F 80.4 °F 56.3 °F 44% 30.10 in 10.0 mi NW 6.9 mph - N/A   Clear
6:35 PM 80.2 °F 80.4 °F 56.7 °F 44% 30.10 in 10.0 mi NW 6.9 mph - N/A   Clear
6:55 PM 79.0 °F - 56.3 °F 46% 30.10 in 10.0 mi NW 5.8 mph - N/A   Clear
7:15 PM 77.9 °F - 57.6 °F 49% 30.10 in 10.0 mi NW 6.9 mph - N/A   Clear
7:35 PM 75.4 °F - 58.3 °F 55% 30.10 in 10.0 mi NW 5.8 mph - N/A   Clear
7:55 PM 73.8 °F - 59.0 °F 60% 30.11 in 10.0 mi NW 4.6 mph - N/A   Clear
8:15 PM 72.7 °F - 59.4 °F 63% 30.11 in 10.0 mi West 3.5 mph - N/A   Clear
8:35 PM 70.9 °F - 59.2 °F 66% 30.12 in 10.0 mi WNW 3.5 mph - N/A   Clear
8:55 PM 70.0 °F - 59.4 °F 69% 30.13 in 10.0 mi West 3.5 mph - N/A   Clear
9:15 PM 69.6 °F - 59.5 °F 70% 30.13 in 10.0 mi West 3.5 mph - N/A   Clear
9:35 PM 70.0 °F - 59.9 °F 70% 30.14 in 10.0 mi WNW 3.5 mph - N/A   Clear
9:55 PM 69.8 °F - 59.9 °F 71% 30.15 in 10.0 mi WNW 4.6 mph - N/A   Clear
10:15 PM 68.0 °F - 59.0 °F 73% 30.15 in 10.0 mi NNW 3.5 mph - N/A   Clear
10:35 PM 65.7 °F - 59.7 °F 81% 30.16 in 10.0 mi Calm Calm - N/A   Clear
10:55 PM 65.8 °F - 59.9 °F 81% 30.16 in 10.0 mi Calm Calm - N/A   Clear
11:15 PM 66.2 °F - 59.4 °F 79% 30.17 in 10.0 mi Calm Calm - N/A   Clear
11:35 PM 65.7 °F - 59.4 °F 80% 30.16 in 10.0 mi Calm Calm - N/A   Clear
11:55 PM 64.8 °F - 58.6 °F 81% 30.17 in 10.0 mi Calm Calm - N/A   Clear